TimeEDT,TemperatureF,Dew PointF,Humidity,Sea Level PressureIn,VisibilityMPH,Wind Direction,Wind SpeedMPH,Gust SpeedMPH,PrecipitationIn,Events,Conditions,WindDirDegrees,DateUTC
12:53 AM,68.0,60.1,76,30.07,10.0,East,4.6,-,N/A,,Clear,80,2012-03-21 04:53:00
1:53 AM,66.9,61.0,81,30.07,10.0,East,4.6,-,N/A,,Clear,90,2012-03-21 05:53:00
2:53 AM,66.0,62.1,87,30.06,10.0,ENE,5.8,-,N/A,,Clear,70,2012-03-21 06:53:00
3:53 AM,64.9,62.1,90,30.06,10.0,East,3.5,-,N/A,,Clear,80,2012-03-21 07:53:00
4:53 AM,64.9,62.1,90,30.05,9.0,East,4.6,-,N/A,,Clear,80,2012-03-21 08:53:00
5:53 AM,64.9,62.1,90,30.06,9.0,East,4.6,-,N/A,,Clear,80,2012-03-21 09:53:00
6:53 AM,64.9,63.0,93,30.07,9.0,East,5.8,-,N/A,,Clear,100,2012-03-21 10:53:00
8:53 AM,70.0,66.0,87,30.10,10.0,East,6.9,-,N/A,,Clear,100,2012-03-21 12:53:00
9:53 AM,77.0,66.9,71,30.12,10.0,ESE,9.2,-,N/A,,Partly Cloudy,120,2012-03-21 13:53:00
10:36 AM,80.6,66.2,61,30.12,10.0,ESE,13.8,21.9,N/A,,Mostly Cloudy,120,2012-03-21 14:36:00
10:53 AM,80.1,66.0,62,30.13,10.0,SE,11.5,21.9,N/A,,Mostly Cloudy,140,2012-03-21 14:53:00
11:53 AM,84.9,64.9,51,30.12,10.0,SSE,11.5,20.7,N/A,,Mostly Cloudy,150,2012-03-21 15:53:00
12:53 PM,86.0,62.1,44,30.09,10.0,SSE,13.8,23.0,N/A,,Partly Cloudy,150,2012-03-21 16:53:00
1:53 PM,88.0,59.0,37,30.06,10.0,SSE,10.4,19.6,N/A,,Partly Cloudy,150,2012-03-21 17:53:00
2:53 PM,89.1,61.0,39,30.04,10.0,SE,10.4,19.6,N/A,,Scattered Clouds,140,2012-03-21 18:53:00
3:53 PM,86.0,66.0,51,30.02,10.0,SW,10.4,17.3,N/A,,Scattered Clouds,220,2012-03-21 19:53:00
4:53 PM,84.0,66.0,55,30.01,10.0,SSW,12.7,18.4,N/A,,Clear,210,2012-03-21 20:53:00
5:53 PM,80.1,66.0,62,30.02,10.0,South,10.4,-,N/A,,Partly Cloudy,190,2012-03-21 21:53:00
6:53 PM,80.1,66.0,62,30.04,10.0,South,5.8,-,N/A,,Overcast,180,2012-03-21 22:53:00
7:53 PM,79.0,66.9,66,30.05,10.0,SE,5.8,-,N/A,,Overcast,130,2012-03-21 23:53:00
8:53 PM,78.1,63.0,60,30.07,10.0,ESE,10.4,-,N/A,,Scattered Clouds,120,2012-03-22 00:53:00
9:53 PM,77.0,64.0,64,30.10,10.0,ESE,11.5,-,N/A,,Clear,110,2012-03-22 01:53:00
10:53 PM,75.0,64.0,69,30.12,10.0,ESE,8.1,-,N/A,,Clear,110,2012-03-22 02:53:00
11:53 PM,73.0,64.9,76,30.13,10.0,East,6.9,-,N/A,,Clear,100,2012-03-22 03:53:00